TimeCDT,TemperatureF,Dew PointF,Humidity,Sea Level PressureIn,VisibilityMPH,Wind Direction,Wind SpeedMPH,Gust SpeedMPH,PrecipitationIn,Events,Conditions,WindDirDegrees,DateUTC
12:51 AM,73.0,54.0,51,29.87,10.0,South,5.8,-,N/A,,Clear,190,2013-09-14 05:51:00
1:51 AM,71.1,54.0,55,29.87,10.0,South,4.6,-,N/A,,Clear,180,2013-09-14 06:51:00
2:51 AM,70.0,54.0,57,29.87,10.0,SW,3.5,-,N/A,,Clear,220,2013-09-14 07:51:00
3:51 AM,68.0,53.1,59,29.86,10.0,Calm,Calm,-,N/A,,Clear,0,2013-09-14 08:51:00
4:51 AM,66.0,54.0,65,29.87,10.0,SSW,3.5,-,N/A,,Clear,210,2013-09-14 09:51:00
5:51 AM,66.0,54.0,65,29.87,10.0,SW,3.5,-,N/A,,Clear,230,2013-09-14 10:51:00
6:51 AM,64.9,54.0,68,29.89,10.0,SW,3.5,-,N/A,,Clear,230,2013-09-14 11:51:00
7:51 AM,64.9,54.0,68,29.91,10.0,SW,3.5,-,N/A,,Clear,220,2013-09-14 12:51:00
8:51 AM,71.1,55.9,59,29.92,10.0,Calm,Calm,-,N/A,,Clear,0,2013-09-14 13:51:00
9:51 AM,75.9,59.0,56,29.94,10.0,NE,3.5,-,N/A,,Clear,40,2013-09-14 14:51:00
10:51 AM,81.0,61.0,50,29.94,10.0,Calm,Calm,-,N/A,,Clear,0,2013-09-14 15:51:00
11:51 AM,87.1,61.0,41,29.93,10.0,NE,8.1,-,N/A,,Clear,40,2013-09-14 16:51:00
12:51 PM,88.0,60.1,39,29.91,10.0,East,9.2,-,N/A,,Partly Cloudy,90,2013-09-14 17:51:00
1:51 PM,91.0,57.0,32,29.88,10.0,SE,11.5,19.6,N/A,,Scattered Clouds,140,2013-09-14 18:51:00
2:51 PM,91.9,57.0,31,29.85,10.0,SSE,13.8,19.6,N/A,,Scattered Clouds,150,2013-09-14 19:51:00
3:51 PM,91.9,55.9,30,29.83,10.0,ESE,5.8,16.1,N/A,,Scattered Clouds,120,2013-09-14 20:51:00
4:51 PM,91.9,55.9,30,29.82,10.0,SE,12.7,-,N/A,,Scattered Clouds,140,2013-09-14 21:51:00
5:51 PM,93.0,55.0,28,29.82,10.0,ESE,12.7,-,N/A,,Partly Cloudy,110,2013-09-14 22:51:00
6:51 PM,91.9,55.9,30,29.83,10.0,ESE,12.7,19.6,N/A,,Clear,110,2013-09-14 23:51:00
7:51 PM,89.1,57.0,34,29.84,10.0,SE,11.5,-,N/A,,Clear,130,2013-09-15 00:51:00
8:51 PM,84.9,57.9,40,29.86,10.0,ESE,5.8,-,N/A,,Clear,110,2013-09-15 01:51:00
9:51 PM,82.0,57.9,44,29.88,10.0,ESE,3.5,-,N/A,,Clear,110,2013-09-15 02:51:00
10:51 PM,80.1,57.0,45,29.89,10.0,SSW,3.5,-,N/A,,Clear,200,2013-09-15 03:51:00
11:51 PM,75.9,55.0,48,29.89,10.0,South,3.5,-,N/A,,Clear,190,2013-09-15 04:51:00